Tracking 31027 objects as of 19-Jul-2025
HD Live streaming from Space Station
objects crossing your sky now

SL-14 R/B

Track SL-14 R/B now!
10-day predictions


NORAD ID: 20741
Int'l Code: 1990-070G
Perigee: 1,419.0 km
Apogee: 1,476.7 km
Inclination: 82.6 °
Period: 114.7 minutes
Semi major axis: 7818 km
RCS: 6.347 m2 (large)
Launch date: August 8, 1990
Source: Commonwealth of Independent States (former USSR) (CIS)
Launch site: PLESETSK MISSILE AND SPACE COMPLEX (PKMTR)

Note: This is a ROCKET BODY
Your satellite tracking list
SL-8 DEB
Track 1 satellite(s)




NASA's NSSDC Master Catalog

Two Line Element Set (TLE):
1 20741U 90070G   25199.52915730  .00000009  00000-0 -74897-5 0  9998
2 20741  82.5767 280.6022 0036915  84.5680 287.0364 12.55714629601656
Source of the keplerian elements: AFSPC